Cedar Lake Weather Center

Moon Phase Calendar



Cedar Lake Water Level
Online Cameras

 


      

Current Conditions in Carbondale
3/2/2024 9:19:52 PM

47°F
Feels Like 43
Clear
Humidity
81%
Pressure
30.03"
Wind
6.9 mph (SE)
Dew Point
41°F
UV Index
0/10 (Low)
Visibility
6 mi

Hourly Forecast

Date & Time Sat, Mar 2
9:00 PM
Sat, Mar 2
10:00 PM
Sat, Mar 2
11:00 PM
Sun, Mar 3
12:00 AM
Sun, Mar 3
1:00 AM
Sun, Mar 3
2:00 AM
Sun, Mar 3
3:00 AM
Sun, Mar 3
4:00 AM
Sun, Mar 3
5:00 AM
Sun, Mar 3
6:00 AM
Sun, Mar 3
7:00 AM
Sun, Mar 3
8:00 AM
Sun, Mar 3
9:00 AM
Sun, Mar 3
10:00 AM
Sun, Mar 3
11:00 AM
Sun, Mar 3
12:00 PM
Sun, Mar 3
1:00 PM
Sun, Mar 3
2:00 PM
Sun, Mar 3
3:00 PM
Sun, Mar 3
4:00 PM
Sun, Mar 3
5:00 PM
Sun, Mar 3
6:00 PM
Sun, Mar 3
7:00 PM
Sun, Mar 3
8:00 PM
Sun, Mar 3
9:00 PM
Sun, Mar 3
10:00 PM
Sun, Mar 3
11:00 PM
Mon, Mar 4
12:00 AM
Mon, Mar 4
1:00 AM
Mon, Mar 4
2:00 AM
Mon, Mar 4
3:00 AM
Mon, Mar 4
4:00 AM
Mon, Mar 4
5:00 AM
Mon, Mar 4
6:00 AM
Mon, Mar 4
7:00 AM
Mon, Mar 4
8:00 AM
Mon, Mar 4
9:00 AM
Mon, Mar 4
10:00 AM
Mon, Mar 4
11:00 AM
Mon, Mar 4
12:00 PM
Mon, Mar 4
1:00 PM
Mon, Mar 4
2:00 PM
Mon, Mar 4
3:00 PM
Mon, Mar 4
4:00 PM
Mon, Mar 4
5:00 PM
Mon, Mar 4
6:00 PM
Mon, Mar 4
7:00 PM
Mon, Mar 4
8:00 PM
Condition
Clear

Clear

Clear

Clear

Clear

Clear

Clear

Clear

Clear

Clear

Clear

Clear

Clear

Clear

Clear

Clear

Clouds

Clouds

Clouds

Clouds

Clouds

Clouds

Clouds

Clouds

Clouds

Clouds

Clouds

Clouds

Clouds

Clouds

Clouds

Clouds

Clouds

Clear

Clear

Clear

Clear

Clear

Clear

Clouds

Clouds

Clouds

Clouds

Clouds

Clouds

Clouds

Clouds

Clouds
Temperature 47°F47°F47°F47°F47°F47°F47°F47°F47°F47°F47°F51°F56°F60°F64°F67°F69°F71°F72°F71°F69°F66°F64°F63°F62°F62°F62°F61°F61°F60°F60°F59°F59°F59°F59°F62°F67°F70°F73°F75°F76°F76°F76°F74°F72°F69°F67°F66°F
Feels Like 43°F43°F43°F43°F43°F43°F43°F43°F43°F42°F42°F50°F54°F59°F63°F66°F69°F71°F72°F71°F69°F65°F64°F62°F62°F62°F62°F61°F61°F60°F60°F59°F59°F59°F59°F62°F66°F70°F73°F75°F75°F76°F76°F74°F71°F69°F67°F66°F
Cloudiness 0%0%0%0%2%5%9%10%10%9%2%1%1%1%1%1%12%19%42%48%59%65%100%100%100%99%94%90%51%29%21%15%12%10%0%3%6%5%5%12%100%99%83%87%90%91%100%100%
Visibility 6 mi6 mi6 mi6 mi6 mi6 mi6 mi6 mi6 mi6 mi6 mi6 mi6 mi6 mi6 mi6 mi6 mi6 mi6 mi6 mi6 mi6 mi6 mi6 mi6 mi6 mi6 mi6 mi6 mi6 mi6 mi6 mi6 mi6 mi6 mi6 mi6 mi6 mi6 mi6 mi6 mi6 mi6 mi6 mi6 mi6 mi6 mi6 mi
Precipitation 0%0%0%0%0%0%0%0%0%0%0%0%0%0%0%0%0%0%0%0%0%0%0%0%0%0%0%0%0%0%0%0%0%0%0%0%0%0%0%0%0%0%0%0%0%0%0%0%
Humidity 81%83%85%87%89%92%93%94%95%95%93%85%76%69%65%64%61%59%59%60%64%71%78%83%87%88%88%89%90%92%92%92%93%92%90%83%74%68%63%57%55%54%55%59%64%70%76%78%
Dew Point 41°F42°F43°F43°F44°F45°F45°F46°F46°F45°F46°F47°F48°F50°F52°F54°F55°F56°F57°F57°F56°F56°F57°F57°F58°F58°F58°F58°F58°F58°F58°F57°F57°F57°F56°F57°F58°F59°F59°F59°F59°F59°F59°F59°F59°F59°F59°F59°F
Pressure 30.03"30.03"30.03"30.03"30.03"30.03"30.03"30.03"30.03"30.03"30"30"30"30"29.97"29.97"29.94"29.91"29.91"29.88"29.88"29.91"29.91"29.91"29.94"29.94"29.94"29.97"29.97"29.97"29.94"29.94"29.94"29.97"29.97"29.97"29.97"29.97"29.94"29.94"29.91"29.88"29.88"29.88"29.88"29.88"29.91"29.91"
Wind Speed 7.2 mph7.8 mph8.1 mph8.9 mph8.9 mph8.8 mph8.9 mph9 mph8.6 mph10 mph10.7 mph11.6 mph13.6 mph15 mph16.1 mph17 mph17.6 mph17.8 mph15.7 mph15.2 mph14 mph12.8 mph13 mph12.3 mph11.7 mph13.3 mph13.8 mph13 mph13.6 mph12.9 mph12.3 mph11.7 mph11.5 mph11.6 mph11.3 mph12.6 mph14.6 mph16.8 mph18.3 mph18.9 mph18.3 mph16.9 mph15.6 mph14.4 mph13 mph11.2 mph9.8 mph10.1 mph
Wind
Direction
158°
SSE
157°
SSE
157°
SSE
157°
SSE
163°
SSE
165°
SSE
171°
S
171°
S
170°
S
164°
SSE
168°
SSE
175°
S
179°
S
182°
S
183°
S
188°
S
190°
S
191°
S
190°
S
187°
S
186°
S
181°
S
185°
S
186°
S
181°
S
184°
S
187°
S
188°
S
193°
SSW
192°
SSW
190°
S
187°
S
182°
S
179°
S
179°
S
179°
S
186°
S
190°
S
192°
SSW
193°
SSW
193°
SSW
191°
S
189°
S
188°
S
187°
S
184°
S
180°
S
180°
S

Daily Forecast

Date High Low Precip. Humidity
Today
Mar 2

Clear
59 °F
38 °F
0%
58%
Sunday
Mar 3

Clear
72 °F
47 °F
0%
64%
Monday
Mar 4

Clouds
76 °F
59 °F
16%
57%
Tuesday
Mar 5

Rain
66 °F
57 °F
100%
79%
Wednesday
Mar 6

Rain
61 °F
48 °F
98%
47%
Thursday
Mar 7

Clouds
55 °F
42 °F
1%
44%
Friday
Mar 8

Rain
58 °F
47 °F
100%
93%
Saturday
Mar 9

Rain
52 °F
38 °F
100%
71%
Sunday
Mar 10

Clear
52 °F
32 °F
0%
41%
Monday
Mar 11

Clouds
62 °F
41 °F
0%
52%
Tuesday
Mar 12

Clouds
66 °F
45 °F
0%
62%
Wednesday
Mar 13

Rain
66 °F
53 °F
65%
84%
Thursday
Mar 14

Rain
65 °F
55 °F
92%
85%
Friday
Mar 15

Rain
63 °F
40 °F
100%
69%
Saturday
Mar 16

Clouds
41 °F
33 °F
0%
61%
Sunday
Mar 17

Clouds
40 °F
30 °F
0%
64%

Temperature 8-14 Day Outlook



Precipitation 8-14 Day Outlook




Quick Links
Cedar Lake News
Cedar Lake Photos
Cedar Lake Videos




About Us
Contact Us
Site Map
Search Site
Advertise With Us
   
Cedar.USLakes.info
THE CEDAR LAKE WEBSITE

Copyright 2024, Lakes Online
Privacy    |    Legal